User: anonymous   Login
Location: Unspecified
(0.0000°N, 0.0000°E)
Time: 23:14:06
(UTC+00:00)
Language:

FAST 2 (USA 228) - Orbit

View from above orbital plane
View from above orbital plane
View from above satellite
View from above satellite

Ground track
Ground track

The orbit is defined by the following mean orbital elements,

1 37380U          26140.61134186 +.00000000 +00000-0 +56106-4 0 00009
2 37380  71.9715 207.0400 0014988 172.1757 187.9645 14.84594994    03
Epoch (UTC): 20 May 2026 14:40:19
Eccentricity: 0.0014988
inclination: 71.9715°
perigee height: 604 km
apogee height: 625 km
right ascension of ascending node: 207.0400°
argument of perigee: 172.1757°
revolutions per day: 14.84594994
mean anomaly at epoch: 187.9645°

The dashed part of the orbit path shows where the satellite is in the earth's shadow,  

DLR